• Join FlightAware (Why Join?)
  • Login
  • US Flag 
08:11PM EDT


 

Airport Tracker/Info


-or-


 

Live Flight TrackerFlight Track Log ✈ UPS1477 ✈ 15-May-2013 ✈ KLAN - KLCK

Flight Track Log - Related Links

Times and Time Zones

All times are in EDT time to prevent confusion due to time zone crossing. See the UPS1477 flight status page for this flight to view local times or setup timezone preferences in your user account.

Time Position Orientation Groundspeed Altitude Reporting Facility
EDT Latitude Longitude Course Direction KTS MPH feet Rate Location/Type
10:16PM 42.6440 -84.6220 123° Southeast 361 415 11,400  Level FlightAware
10:17PM 42.6040 -84.5420 124° Southeast 414 476 12,800 1,800 Climbing FlightAware
10:18PM 42.5520 -84.4400 125° Southeast 428 493 14,000 900 Climbing FlightAware
10:19PM 42.5080 -84.3530 124° Southeast 425 489 14,100 1,380 Climbing FlightAware
10:19PM 42.4500 -84.2810 138° Southeast 419 482 15,900 2,940 Climbing FlightAware
10:20PM 42.3760 -84.2220 149° Southeast 442 509 18,300 3,240 Climbing FlightAware
10:21PM 42.2760 -84.1460 151° Southeast 455 524 21,300 2,760 Climbing FlightAware
10:22PM 42.1900 -84.0810 151° Southeast 478 550 22,900 1,500 Climbing FlightAware
10:23PM 42.0820 -83.9990 151° Southeast 469 540 23,800 1,320 Climbing FlightAware
10:23PM 42.0230 -83.9540 150° Southeast 454 522 24,900 900 Climbing FlightAware
10:24PM 41.9360 -83.8890 151° Southeast 446 513 25,000 60 Climbing FlightAware
10:25PM 41.8600 -83.8320 151° Southeast 449 517 25,000  Level FlightAware
10:25PM 41.7750 -83.7680 151° Southeast 453 521 25,000  Level FlightAware
10:26PM 41.6850 -83.7000 151° Southeast 456 525 25,000  Level FlightAware
10:26PM 41.7340 -83.7370 331° Northwest 25,000  Level FlightAware
10:27PM 41.6020 -83.6390 151° Southeast 457 526 25,000  Level FlightAware
10:28PM 41.5140 -83.5740 151° Southeast 457 526 25,000  Level FlightAware
10:28PM 41.4400 -83.5190 151° Southeast 456 525 25,000  Level FlightAware
10:29PM 41.3670 -83.4660 151° Southeast 455 524 25,000  Level FlightAware
10:30PM 41.2860 -83.4050 150° Southeast 451 519 25,000  Level FlightAware
10:30PM 41.2100 -83.3500 151° Southeast 450 518 25,000 -180 Level FlightAware
10:31PM 41.1400 -83.2990 151° Southeast 448 516 24,800 -1,380 Descending FlightAware
10:32PM 41.0590 -83.2400 151° Southeast 444 511 23,100 -2,220 Descending FlightAware
10:33PM 40.9860 -83.1860 151° Southeast 438 504 21,700 -1,920 Descending FlightAware
10:33PM 40.9230 -83.1410 152° Southeast 432 497 20,600 -1,740 Descending FlightAware
10:34PM 40.8490 -83.0870 151° Southeast 419 482 19,400 -1,800 Descending FlightAware
10:35PM 40.7630 -83.0250 151° Southeast 411 473 17,900 -1,740 Descending FlightAware
10:35PM 40.6960 -82.9770 151° Southeast 402 463 16,800 -1,740 Descending FlightAware
10:36PM 40.6300 -82.9340 154° Southeast 394 453 15,600 -1,680 Descending FlightAware
10:37PM 40.5560 -82.8970 159° South 382 440 14,500 -1,500 Descending FlightAware
10:37PM 40.4920 -82.8670 160° South 368 423 13,500 -1,740 Descending FlightAware
10:38PM 40.4190 -82.8350 162° South 359 413 12,100 -1,380 Descending FlightAware
10:39PM 40.3630 -82.8100 161° South 360 414 11,600 -420 Descending FlightAware
10:40PM 40.3090 -82.7850 161° South 360 414 11,600  Level FlightAware
10:40PM 40.2550 -82.7610 161° South 360 414 11,600 -1,200 Level FlightAware
10:41PM 40.1844 -82.7331 161° South 317 365 9,900 -1,920 Descending Indianapolis Center
10:41PM 40.1319 -82.7286 176° South 287 330 9,200 -1,680 Descending Indianapolis Center
10:42PM 40.1042 -82.7267 177° South 289 333 8,200 -2,460 Descending Indianapolis Center
10:42PM 40.0525 -82.7253 179° South 282 325 6,700 -2,400 Descending Indianapolis Center
10:43PM 40.0250 -82.7228 176° South 281 323 5,800 -2,400 Descending Indianapolis Center
10:44PM 39.9756 -82.7167 175° South 273 314 4,300 -2,460 Descending Indianapolis Center
10:44PM 39.9397 -82.7258 191° South 268 308 3,300 -1,320 Descending Indianapolis Center
10:45PM 39.9247 -82.7572 238° Southwest 193 222 3,000 -300 Descending Indianapolis Center
10:45PM 39.9119 -82.7875 241° Southwest 213 245 3,000 -480 Level Indianapolis Center
10:46PM 39.8869 -82.8303 233° Southwest 170 196 2,300 -660 Descending Indianapolis Center
10:47PM 39.8750 -82.8467 226° Southwest 125 144 2,100 -600 Descending Indianapolis Center
10:47PM 39.8625 -82.8608 221° Southwest 141 162 1,700 -600 Descending Indianapolis Center
10:48PM 39.8522 -82.8742 225° Southwest 109 125 1,500 -540 Descending Indianapolis Center
10:48PM 39.8408 -82.8894 226° Southwest 121 139 1,200 -540 Descending Indianapolis Center